User: anonymous   Login
Location: Unspecified
(0.0000°N, 0.0000°E)
Time: 16:44:18
(UTC+00:00)
Language:

Hispasat 36W-1 - Orbit

View from above orbital plane
View from above orbital plane
View from above satellite
View from above satellite

Ground track
Ground track

The orbit data is extracted from the following two-line orbital elements,

1 41942U 17006A   17346.87291223 -.00000248  00000-0  00000+0 0  9993
2 41942   0.0293 164.3037 0001033  95.5232 100.1672  1.00271652  3366
Epoch (UTC): 12 December 2017 20:56:59
Eccentricity: 0.0001033
inclination: 0.0293°
perigee height: 35782 km
apogee height: 35790 km
right ascension of ascending node: 164.3037°
argument of perigee: 95.5232°
revolutions per day: 1.00271652
mean anomaly at epoch: 100.1672°
orbit number at epoch: 336

The dashed part of the orbit path shows where the satellite is in the earth's shadow,  

DLR